STARLINK-2567, 48276

Orbit data source: Space-Track

STARLINK-2567, 48276 is a payload satellite owned by SpaceX/Seattle (US) in LEO that was launched on Thu, 29 Apr 2021 UTC via an FALCON 9 launch vehicle from the Air Force Eastern Test Range (AFETR). Payload-class satellites include a variety of spacecraft equipped with specific instruments for various scientific and technological missions. These include communications satellites like Starlink; space stations such as the ISS; scientific satellites like the Hubble; Earth observation satellites from companies like Planet Labs, Umbra, and HawkEye 360; GPS; miniature CubeSats for education and research; and military/defense satellites.

Loading next visibility...
Identifier
48276, 2021-036A
Orbit
LEO
Country
Flag of USUS
Related business
Manufacturer
SpaceX/Seattle
Mission
Operational Commercial Communications
Bus & Motor
STARLINK, Unknown motor
Mass
260 kg wet, ~248 kg dry
Launch date (UTC)
2021-04-29 (5 years ago)
Launch vehicle
FALCON 9
Launch site
Air Force Eastern Test Range (AFETR)
Object type
Payload
Rocket body
Debris
Shape & HBR
Box + 1 Pan, 10.1 m
Radar Cross Section
13.562 m², Large (>1 m²)

Expand to show TLE details & history
Last TLE update: 14 hours ago

TLE from 14 hours ago
0 STARLINK-2567
1 48276U 21036A   25308.54334881  .00001717  00000-0  13415-3 0  9996
2 48276  53.0564 248.4242 0001711  89.0677 271.0508 15.06399454249942
Epoch: 2025-11-04T13:02Z
TLE epoch observation values (Epoch: 2025-11-04T13:02:25.337Z)
Latitude
-0.00001°
Longitude
8.78976°
Altitude
548.071 km
Speed
7.589 km/s
True Right ascension
16h 33m 41s
True Declination
0° 00' 00"
Sunlit
Object was in daylight at epoch
Visualization orbit readout
Latitude
Unknown
Longitude
Unknown
Altitude
Unknown
Speed
Unknown
Apparent Right ascension
Unknown
Apparent Declination
Unknown
Sunlit
N/A
Visualization observer readout
Local Sidereal Time
23:04:01
Azimuth
Unknown
Elevation
Unknown
Doppler factor
Unknown
Orbital elements
Apogee altitude
548.669 km
Perigee altitude
546.299 km
Semi-major axis
6,925.621 km
Eccentricity
0.00017
Inclination
53.0564°
RAAN
248.4242°
Arg. of periapsis
89.0677°
True anomaly
271.0312°
Mean anomaly
271.0508°
Eccentric anomaly
271.041°
Mean motion
3.76578 °/min
Orbital period
95.6 mins
BSTAR
0.00013415
Loading maneuver chart data...
Computing Atmospheric mass density...
Loading historical data...
Loading historical data...
Loading historical data...
Loading historical data...
Loading historical data...
Loading historical data...
Loading historical data...

Documentation

Showing up to 5 results
|